Location: Unspecified
(42.9334°N, 0.0000°E)
Time: 22:12:57
(UTC+00:00)

Altair 2 - Visible Passes

Search period start: 04 April 2026 00:00
Search period end: 14 April 2026 00:00
Orbit: 872 x 1049 km, 79.7° (Epoch: 28 March)

Date Brightness Start Highest point End Pass type
(mag) Time Alt. Az. Time Alt. Az. Time Alt. Az.
4 Apr 8.3 03:51:00 10° S 03:57:04 51° E 04:02:54 10° NNE visible
5 Apr 10.1 02:31:02 10° ESE 02:33:20 12° E 02:35:37 10° ENE visible
5 Apr 7.5 04:11:38 10° S 04:17:56 86° E 04:23:59 10° NNE visible
6 Apr 9.6 02:49:19 10° SE 02:53:53 22° E 02:58:20 10° NE visible
6 Apr 7.5 04:32:47 10° SSW 04:38:55 57° WNW 04:44:50 10° N visible
7 Apr 8.7 03:08:56 10° SSE 03:14:34 37° E 03:20:00 10° NNE visible
7 Apr 8.1 04:54:27 10° SW 05:00:02 34° WNW 05:05:27 10° N visible
8 Apr 7.8 03:29:42 12° S 03:35:22 63° E 03:41:15 10° NNE visible
9 Apr 9.9 02:08:10 10° ESE 02:11:30 15° E 02:14:48 10° NE visible
9 Apr 7.3 03:51:08 16° SSW 03:56:16 78° WNW 04:02:14 10° N visible
10 Apr 9.2 02:28:05 14° SE 02:32:06 26° E 02:36:56 10° NE visible
10 Apr 7.7 04:12:27 15° SW 04:17:18 46° WNW 04:22:59 10° N visible
11 Apr 8.3 02:49:19 23° SSE 02:52:49 45° E 02:58:25 10° NNE visible
11 Apr 8.4 04:33:42 12° WSW 04:38:28 28° WNW 04:43:29 10° N visible
12 Apr 7.4 03:10:31 30° S 03:13:39 77° E 03:19:33 10° NNE visible
13 Apr 9.5 01:47:16 15° ESE 01:49:41 19° E 01:53:38 10° NE visible
13 Apr 7.4 03:31:38 31° SSW 03:34:36 64° WNW 03:40:27 10° N visible
